This is the latest recevied weather packets stored in our database for station/object KC5DAQ-2. If no packets are shown the sender has not sent any weather packets the latest 10 day(s).
| Time | Temp. | Humidity | Pressure | Rain* | Wind** | Luminosity | Snow |
|---|---|---|---|---|---|---|---|
| 1777483533 | 28.89° C | 83% | 1004.9 hPa | 0 mm | - | 290 W/m² | - |
| 1777483473 | 28.89° C | 83% | 1005 hPa | 0 mm | - | 290 W/m² | - |
| 1777483412 | 28.89° C | 83% | 1005 hPa | 0 mm | - | 315 W/m² | - |
| 1777483353 | 28.89° C | 83% | 1005 hPa | 0 mm | - | 276 W/m² | - |
| 1777483292 | 28.89° C | 83% | 1005 hPa | 0 mm | - | 276 W/m² | - |
| 1777483232 | 28.89° C | 84% | 1005 hPa | 0 mm | - | 276 W/m² | - |
| 1777483174 | 28.89° C | 84% | 1005 hPa | 0 mm | - | 243 W/m² | - |
| 1777483113 | 28.89° C | 84% | 1005.1 hPa | 0 mm | - | 243 W/m² | - |
| 1777483053 | 28.89° C | 84% | 1005.2 hPa | 0 mm | - | 243 W/m² | - |
| 1777482992 | 28.89° C | 84% | 1005.1 hPa | 0 mm | - | 243 W/m² | - |
| 1777482933 | 28.89° C | 84% | 1005.3 hPa | 0 mm | - | 243 W/m² | - |
| 1777482873 | 28.89° C | 84% | 1005.2 hPa | 0 mm | - | 243 W/m² | - |
| 1777482814 | 28.89° C | 84% | 1005.3 hPa | 0 mm | - | 262 W/m² | - |
| 1777482752 | 28.89° C | 84% | 1005.3 hPa | 0 mm | - | 262 W/m² | - |
| 1777482693 | 28.89° C | 84% | 1005.3 hPa | 0 mm | - | 301 W/m² | - |
| 1777482635 | 28.89° C | 84% | 1005.3 hPa | 0 mm | - | 301 W/m² | - |
| 1777482572 | 28.89° C | 84% | 1005.3 hPa | 0 mm | - | 394 W/m² | - |
| 1777482512 | 28.89° C | 84% | 1005.3 hPa | 0 mm | - | 394 W/m² | - |
| 1777482454 | 28.89° C | 84% | 1005.3 hPa | 0 mm | - | 394 W/m² | - |
| 1777482392 | 28.89° C | 84% | 1005.3 hPa | 0 mm | - | 288 W/m² | - |
| 1777482332 | 28.89° C | 84% | 1005.4 hPa | 0 mm | - | 288 W/m² | - |
| 1777482272 | 28.89° C | 85% | 1005.3 hPa | 0 mm | - | 288 W/m² | - |
| 1777482214 | 28.89° C | 87% | 1005.3 hPa | 0 mm | - | 387 W/m² | - |
| 1777482155 | 28.89° C | 87% | 1005.3 hPa | 0 mm | - | 387 W/m² | - |
| 1777482092 | 28.89° C | 87% | 1005.3 hPa | 0 mm | - | 387 W/m² | - |
* Rain latest hour (hover to see other rain measurements)
** Current wind speed in m/s (hover to see current wind gust speed)